[[{"header":{"parameterUnit":"m.s-1","parameterCategory":1,"la1":30.2991,"la2":30.254,"lo1":-89.0895,"lo2":-89.0444,"dy":0.0017,"dx":0.0017,"nx":28,"ny":28,"refTime":"2024-07-10T21:00:00:Z","depth":0,"parameterNumber":2,"parameterNumberName":"U-component_of_WINDS"},"data":[0,0,0,0,0,0,0,0,0,0,0,0,0,0,0,0,0,0,0,0,0,0,0,0,0,0,0,0,0,0,0,0,0,0,0,0,0,0,0,0,0,0,0,0,0,0,0,0,0,0,0,0,0,0,0,0,0,0,2.3492,2.3493,0,2.358,2.3581,2.3582,2.3572,2.3571,2.3569,2.3568,2.3657,2.366,2.3664,0,0,0,0,0,0,0,0,0,0,0,0,0,2.3312,2.3315,2.3491,2.3493,2.3494,2.358,2.3581,2.3582,2.3572,2.3571,2.3569,2.3567,2.3656,2.366,2.3664,0,0,0,0,0,0,0,0,0,0,0,0,0,2.3394,2.3316,2.3491,2.3499,2.3501,2.358,2.3581,2.3583,2.3573,2.3571,2.3569,2.3567,2.3654,2.3659,2.3665,2.3741,0,0,2.3682,2.3684,0,0,0,0,0,0,0,0,2.3389,2.3401,2.3497,2.3499,2.3501,2.3563,2.355,2.3636,2.3573,2.3545,2.3568,2.3566,2.3627,2.3635,2.3656,2.3745,2.3749,2.3682,2.3685,2.3688,2.3689,0,0,0,0,0,0,0,2.3384,2.3397,2.3526,2.3498,2.3501,2.3498,2.3507,2.3566,2.3597,2.3548,2.3547,2.3558,2.3628,2.3651,2.3658,2.375,2.3682,2.3687,2.369,2.3692,2.3905,2.3908,0,0,0,0,0,0,2.3376,2.3392,2.3524,2.3529,2.3439,2.3503,2.3513,2.3545,2.3596,2.3602,2.356,2.3557,2.3642,2.3651,2.3661,2.3753,2.3688,2.3693,2.3696,2.3903,2.3906,2.3908,0,0,0,0,0,0,2.3373,2.3388,2.352,2.3461,2.3477,2.3508,2.3544,2.3548,2.3571,2.3605,2.361,2.3577,2.3641,2.3653,2.3721,2.3756,2.3695,2.37,2.39,2.3904,2.3907,2.3937,0,0,0,0,0,0,2.3368,2.3387,2.3417,2.3461,2.348,2.3579,2.3546,2.3551,2.358,2.3578,2.3623,2.3629,2.364,2.3713,2.3726,2.3762,2.3705,2.3897,2.3902,2.3906,2.3933,2.3941,2.3948,0,0,0,0,0,2.3361,2.3421,2.3418,2.3434,2.3518,2.3581,2.3592,2.3605,2.3583,2.3613,2.3635,2.3627,2.375,2.372,2.3735,2.3773,2.3895,2.3901,2.3906,2.393,2.394,2.3948,0,0,0,0,0,0,2.3379,2.3427,2.3424,2.3501,2.3537,2.358,2.3617,2.3615,2.3657,2.3653,2.3666,2.3676,2.3745,2.3766,2.3732,2.3849,2.3819,2.3828,2.3833,2.3842,2.385,2.3843,2.3709,0,0,0,0,0,2.3392,2.344,2.3479,2.3543,2.3561,2.3586,2.3614,2.3621,2.3659,2.3674,2.3701,2.3737,2.3784,2.3814,2.3859,2.3936,2.3946,2.397,2.3977,2.3983,2.399,2.4032,2.4043,2.3926,2.3926,2.3926,0,0,2.3419,2.3451,2.3481,2.3547,2.3576,2.3625,2.3599,2.3652,2.3688,2.3682,2.3747,2.3769,2.381,2.3883,2.3916,2.3902,2.4025,2.399,2.3995,2.3999,2.4039,2.405,2.406,2.3929,2.3929,2.3928,0,0,2.3493,2.3523,2.3579,2.3609,2.3653,2.3669,2.3682,2.3726,2.374,2.3806,2.3802,2.3845,2.3925,2.3955,2.398,2.4066,2.406,2.408,2.4119,2.4159,2.4169,2.4177,2.4207,2.4217,2.4087,2.4087,2.4087,0,2.3521,2.3595,2.3608,2.3661,2.369,2.3688,2.3744,2.3772,2.3828,2.3848,2.3832,2.3933,2.396,2.404,2.4061,2.4082,2.4097,2.4075,2.4166,2.4175,2.4183,2.4211,2.4222,2.4089,2.4089,2.4089,2.4089,0,2.3627,2.3678,2.3718,2.3773,2.3806,2.3861,2.3882,2.3914,2.3918,2.3935,2.4003,2.4036,2.4087,2.4107,2.4111,2.4187,2.4177,2.4164,2.4134,2.4196,2.4223,2.4234,2.4092,2.4091,2.4091,2.409,0,0,2.3714,2.3776,2.379,2.3815,2.3864,2.3903,2.3957,2.4008,2.4035,2.4075,2.412,2.4188,2.4176,2.4205,2.4212,2.4248,2.4313,2.423,2.4231,2.4244,2.4398,2.4407,2.4419,2.4309,2.4312,2.4313,2.4394,0,2.3792,2.3889,2.3902,2.3987,2.4034,2.4032,2.4079,2.4114,2.4132,2.4174,2.4194,2.4242,2.4223,2.424,2.4275,2.4297,2.4344,2.4292,2.4351,2.4353,2.434,2.4433,2.4443,2.4518,2.4405,2.4406,2.4408,0,2.3897,2.3939,2.4029,2.4071,2.4091,2.4133,2.4181,2.4221,2.426,2.4271,2.4303,2.4306,2.4362,2.433,2.4407,2.4371,2.4396,2.441,2.4414,2.4419,2.4383,2.444,2.4542,2.4553,2.4425,2.4423,2.4422,0,2.395,2.403,2.4094,2.4115,2.4166,2.4196,2.4218,2.4255,2.4285,2.4326,2.4345,2.4392,2.4418,2.4454,2.4469,2.4445,2.4544,2.4515,2.4554,2.4553,2.4574,2.4572,2.468,2.4592,2.4591,2.4591,2.4591,0,2.4036,2.4091,2.4119,2.4158,2.4219,2.4234,2.4294,2.4315,2.4348,2.4391,2.4392,2.4432,2.445,2.4493,2.4505,2.4566,2.4577,2.4587,2.4589,2.4586,2.4585,2.4602,2.4597,2.4594,2.4594,2.4593,2.4592,0,2.4106,2.4127,2.4197,2.4239,2.4251,2.4294,2.433,2.4368,2.4386,2.444,2.4454,2.4481,2.4532,2.4551,2.4612,2.462,2.469,2.4688,2.4677,2.4677,2.4715,2.4711,2.4837,2.4854,2.4755,2.4756,2.4757,0,2.4159,2.4202,2.4249,2.4278,2.4301,2.4348,2.4378,2.4394,2.4426,2.4473,2.4505,2.4555,2.4596,2.4676,2.4702,2.4748,2.4747,2.4788,2.4754,2.475,2.4747,2.4744,2.4748,2.4794,2.4795,2.4796,2.4797,0,2.4251,2.4259,2.4303,2.4351,2.4387,2.4425,2.4462,2.4486,2.4507,2.4542,2.4594,2.4626,2.4688,2.4738,2.4786,2.4808,2.4806,2.4808,2.4819,2.4816,2.4807,2.4812,2.4693,2.4804,2.4804,2.4803,2.4803,2.4802,2.4314,2.4351,2.439,2.4439,2.4468,2.4503,2.454,2.4563,2.4606,2.4659,2.4665,2.4721,2.4758,2.4822,2.4847,2.489,2.4879,2.4896,2.49,2.4903,2.4906,2.4801,2.4899,2.4899,2.4898,2.4898,2.4898,0,2.4405,2.443,2.4474,2.4526,2.4564,2.456,2.4601,2.4633,2.4681,2.4717,2.4757,2.4816,2.4864,2.4893,2.4942,2.497,2.497,2.4982,2.498,2.4985,2.4913,2.4898,2.4981,2.4981,2.4981,2.4981,2.4981,2.4981,2.4456,2.4519,2.4532,2.4609,2.4633,2.4688,2.4711,2.4743,2.4771,2.4837,2.4877,2.4896,2.4929,2.4979,2.5023,2.503,2.5048,2.506,2.5067,2.4999,2.499,2.4982,2.4968,2.5064,2.5064,2.5135,2.5135,2.5136]},{"header":{"parameterUnit":"m.s-1","parameterCategory":1,"la1":30.2991,"la2":30.254,"lo1":-89.0895,"lo2":-89.0444,"dy":0.0017,"dx":0.0017,"nx":28,"ny":28,"refTime":"2024-07-10T21:00:00:Z","depth":0,"parameterNumber":3,"parameterNumberName":"V-component_of_WINDS"},"data":[0,0,0,0,0,0,0,0,0,0,0,0,0,0,0,0,0,0,0,0,0,0,0,0,0,0,0,0,0,0,0,0,0,0,0,0,0,0,0,0,0,0,0,0,0,0,0,0,0,0,0,0,0,0,0,0,0,0,-1.9797,-1.9798,0,-1.9879,-1.988,-1.9881,-1.9896,-1.9895,-1.9895,-1.9894,-1.9976,-1.9979,-1.9982,0,0,0,0,0,0,0,0,0,0,0,0,0,-1.9652,-1.9654,-1.9797,-1.9798,-1.9799,-1.9879,-1.988,-1.9881,-1.9896,-1.9895,-1.9895,-1.9894,-1.9975,-1.9978,-1.9982,0,0,0,0,0,0,0,0,0,0,0,0,0,-1.9722,-1.9655,-1.9797,-1.9816,-1.9819,-1.9879,-1.988,-1.9882,-1.9896,-1.9895,-1.9894,-1.9893,-1.9974,-1.9978,-1.9982,-2.0028,0,0,-1.9995,-1.9997,0,0,0,0,0,0,0,0,-1.9718,-1.9728,-1.9813,-1.9815,-1.9818,-1.9877,-1.9859,-1.9931,-1.9897,-1.9867,-1.9894,-1.9893,-1.9944,-1.995,-1.9968,-2.0032,-2.0036,-1.9995,-1.9998,-2.0,-2.0001,0,0,0,0,0,0,0,-1.9713,-1.9724,-1.983,-1.9814,-1.9817,-1.982,-1.9829,-1.9873,-1.991,-1.9869,-1.9871,-1.988,-1.9945,-1.9964,-1.997,-2.0037,-1.9995,-1.9999,-2.0002,-2.0003,-2.0143,-2.0144,0,0,0,0,0,0,-1.9705,-1.972,-1.9827,-1.9832,-1.9765,-1.9824,-1.9834,-1.9859,-1.9909,-1.9916,-1.9881,-1.9881,-1.9957,-1.9965,-1.9973,-2.0029,-2.0,-2.0004,-2.0006,-2.0141,-2.0143,-2.0144,0,0,0,0,0,0,-1.9702,-1.9715,-1.9824,-1.9777,-1.9791,-1.9827,-1.9855,-1.9861,-1.988,-1.9918,-1.9925,-1.9894,-1.9957,-1.9967,-2.0014,-2.0032,-2.0006,-2.0009,-2.014,-2.0142,-2.0144,-2.0143,0,0,0,0,0,0,-1.9698,-1.9714,-1.9732,-1.9777,-1.9793,-1.9865,-1.9856,-1.9863,-1.9887,-1.9887,-1.9932,-1.9938,-1.9957,-2.0008,-2.0019,-2.0038,-2.0013,-2.0139,-2.0141,-2.0143,-2.0142,-2.0145,-2.0147,0,0,0,0,0,-1.9693,-1.9728,-1.9733,-1.9745,-1.9817,-1.9866,-1.9875,-1.9896,-1.9889,-1.9907,-1.9932,-1.9937,-2.0029,-2.0013,-2.0025,-2.0045,-2.0138,-2.014,-2.0143,-2.0141,-2.0144,-2.0147,0,0,0,0,0,0,-1.9683,-1.9734,-1.974,-1.9791,-1.9824,-1.9868,-1.9892,-1.9899,-1.9934,-1.9933,-1.9957,-1.9967,-2.0013,-2.0034,-2.0015,-2.0093,-2.0083,-2.0088,-2.0077,-2.0081,-2.0083,-2.0077,-2.0016,0,0,0,0,0,-1.9687,-1.9723,-1.9766,-1.9807,-1.9823,-1.9854,-1.9877,-1.989,-1.9925,-1.9939,-1.9967,-2.0,-2.0037,-2.006,-2.0096,-2.0145,-2.0155,-2.0166,-2.0168,-2.0171,-2.0174,-2.0202,-2.0207,-2.0153,-2.0153,-2.0153,0,0,-1.9695,-1.9728,-1.9749,-1.9805,-1.9833,-1.9869,-1.9866,-1.9904,-1.9931,-1.9944,-1.9991,-2.0013,-2.0052,-2.01,-2.0123,-2.0119,-2.0191,-2.0174,-2.0175,-2.0178,-2.0205,-2.021,-2.0214,-2.0155,-2.0154,-2.0154,0,0,-1.9728,-1.9757,-1.9794,-1.9822,-1.9863,-1.9884,-1.9893,-1.9936,-1.9952,-1.9999,-2.001,-2.0042,-2.0104,-2.0131,-2.0153,-2.0197,-2.0203,-2.0208,-2.0222,-2.0249,-2.0253,-2.0257,-2.0272,-2.0277,-2.0212,-2.0212,-2.0212,0,-1.9733,-1.9789,-1.9812,-1.985,-1.9874,-1.9889,-1.9926,-1.9952,-2.0002,-2.0019,-2.0014,-2.0093,-2.012,-2.0175,-2.0186,-2.0203,-2.0213,-2.0203,-2.0251,-2.0255,-2.0259,-2.0273,-2.0279,-2.0213,-2.0213,-2.0213,-2.0213,0,-1.9792,-1.983,-1.9855,-1.9904,-1.9932,-1.9969,-1.9998,-2.0022,-2.0034,-2.0055,-2.0103,-2.0136,-2.0179,-2.0193,-2.0205,-2.025,-2.0246,-2.0246,-2.0236,-2.0264,-2.0278,-2.0283,-2.0213,-2.0213,-2.0213,-2.0213,0,0,-1.982,-1.9883,-1.9891,-1.9914,-1.9961,-1.999,-2.0029,-2.0071,-2.0091,-2.0126,-2.0158,-2.0211,-2.0211,-2.0236,-2.0251,-2.0274,-2.0306,-2.0271,-2.0272,-2.0275,-2.0357,-2.0356,-2.0362,-2.0311,-2.0312,-2.0313,-2.0354,0,-1.9858,-1.9927,-1.9949,-2.0006,-2.0041,-2.0057,-2.009,-2.0122,-2.0143,-2.0176,-2.0199,-2.0236,-2.0233,-2.0248,-2.0272,-2.0297,-2.0323,-2.0295,-2.034,-2.0341,-2.0328,-2.037,-2.0369,-2.0406,-2.0359,-2.036,-2.0361,0,-1.9911,-1.9947,-2.0008,-2.0051,-2.0066,-2.0096,-2.0136,-2.0168,-2.0205,-2.0218,-2.0247,-2.026,-2.0299,-2.0289,-2.0343,-2.0324,-2.0344,-2.0359,-2.0361,-2.0365,-2.0352,-2.0374,-2.0418,-2.0423,-2.037,-2.0369,-2.0369,0,-1.9924,-1.9988,-2.0033,-2.0052,-2.0103,-2.0123,-2.0145,-2.0182,-2.0206,-2.0241,-2.0257,-2.0297,-2.0318,-2.0348,-2.0371,-2.0361,-2.0424,-2.0415,-2.0435,-2.0435,-2.0447,-2.0445,-2.0493,-2.0462,-2.0461,-2.0461,-2.0461,0,-1.9963,-2.0,-2.0039,-2.0066,-2.0107,-2.0133,-2.0173,-2.0196,-2.0228,-2.0259,-2.0275,-2.0304,-2.0334,-2.0367,-2.0385,-2.0427,-2.0437,-2.0449,-2.0453,-2.0447,-2.0445,-2.0459,-2.0456,-2.0463,-2.0462,-2.0462,-2.0462,0,-1.9984,-2.0013,-2.0062,-2.0107,-2.0119,-2.0147,-2.0185,-2.0212,-2.0234,-2.0274,-2.0285,-2.0319,-2.0359,-2.0386,-2.0436,-2.0449,-2.0494,-2.0498,-2.0482,-2.0483,-2.0502,-2.0499,-2.056,-2.0569,-2.0532,-2.0532,-2.0532,0,-2.0007,-2.0035,-2.0083,-2.0106,-2.0128,-2.0165,-2.019,-2.0216,-2.0241,-2.0286,-2.0307,-2.0348,-2.0382,-2.0444,-2.0473,-2.0512,-2.0517,-2.0536,-2.0523,-2.0515,-2.0516,-2.0513,-2.0516,-2.0537,-2.0537,-2.0537,-2.0538,0,-2.0043,-2.0056,-2.0092,-2.0132,-2.0162,-2.0195,-2.0228,-2.0246,-2.0278,-2.0305,-2.0346,-2.0373,-2.0425,-2.0465,-2.0507,-2.0529,-2.0538,-2.0542,-2.0548,-2.0541,-2.053,-2.0535,-2.0486,-2.054,-2.054,-2.0539,-2.0539,-2.0539,-2.0065,-2.0091,-2.0129,-2.0168,-2.0196,-2.0227,-2.0254,-2.028,-2.0315,-2.036,-2.0373,-2.0416,-2.0452,-2.0509,-2.0533,-2.0566,-2.0564,-2.0574,-2.0576,-2.0578,-2.0577,-2.0526,-2.0574,-2.0574,-2.0574,-2.0574,-2.0574,0,-2.0102,-2.0127,-2.0163,-2.0209,-2.024,-2.0248,-2.0285,-2.031,-2.0347,-2.0381,-2.0414,-2.0461,-2.05,-2.0533,-2.0573,-2.0594,-2.0599,-2.0603,-2.0601,-2.0606,-2.0577,-2.0567,-2.0598,-2.0598,-2.0598,-2.0598,-2.0598,-2.0598,-2.0124,-2.0168,-2.0185,-2.0243,-2.0268,-2.031,-2.0331,-2.0359,-2.0386,-2.0438,-2.0471,-2.0492,-2.0526,-2.0569,-2.0605,-2.0613,-2.0627,-2.063,-2.0639,-2.0611,-2.0608,-2.0605,-2.0596,-2.0633,-2.0633,-2.0666,-2.0666,-2.0666]}]]